Location: Carnoy
(49.9849°N, 2.7558°E)
Time: 19:14:21
(UTC+00:00)

USA 116 - Pass Details

Date: 24 January 2020
Orbit: 405 x 834 km, 97.9° (Epoch: 18 November)

Event Time Altitude Azimuth Distance (km) Brightness Sun altitude
Exits shadow 18:52:53 49° 260° (W) 537 4.0 -22.8°
Drops below altitude 10° 18:55:33 10° 210° (SSW) 1,464 6.3 -23.3°
Sets 18:57:31 0° 206° (SSW) 2,323 7.3 -23.6°
